sat.trackr.live / text

‹ back to catalog

CYGFM03

NORAD 41891 · 2016-078H

PAYLOAD INACTIVE UNKNOWN

§ Identity

Operator
Country
US
Launch date
2016-12-15
Launch site
ERAS
Launch vehicle
Mass (kg)
RCS (m²)
0.19

Purposes: earth_obs

External: N2YO · Heavens-Above · Gunter

§ Orbital elements

Epoch: 2026-09-20T04:26:42.493920Z

Period
92.00 min
Inclination
34.9400°
Eccentricity
0.0003117
Mean motion
15.65229591 rev/d
Perigee alt
370.5 km
Apogee alt
374.7 km
Semi-major
6,750.7 km
B*
2.5631e-4
RAAN
316.6811°
Arg perigee
15.8327°
Mean anomaly
344.2496°
Rev number
54,384

§ Raw data

CYGFM031 41891U 16078H   26263.18521405  .00026336  00000+0  25631-3 0  99992 41891  34.9400 316.6811 0003117  15.8327 344.2496 15.65229591543840

JSON: /api/v1/satellites/41891 · /tle

For live sub-satellite position, see the globe view (requires WebGL).

§ Visibility from observer

Set your observer location to see the next 7 days of passes ≥ 10°. The values pass through the URL so the page stays shareable.

No JS? Fill the form by hand. The geolocation button needs JavaScript.